Location: Alafon
(8.4500°N, 4.2333°E)
Time: 18:48:44
(UTC+00:00)

Vanguard 2 - Pass Details

Date: 12 August 2021
Orbit: 553 x 2937 km, 32.9° (Epoch: 27 September)

Event Time Altitude Azimuth Distance (km) Brightness Sun altitude
Rises 16:26:38 0° 207° (SSW) 6,716 12.5 21.7°
Reaches altitude 10° 16:36:14 10° 181° (S) 5,750 11.9 19.4°
Maximum altitude 16:42:12 12° 160° (SSE) 5,432 11.6 18.0°
Drops below altitude 10° 16:47:49 10° 140° (SE) 5,417 11.4 16.6°
Sets 16:55:53 0° 114° (ESE) 5,944 11.4 14.7°
